Wetterdaten: Woche 04.12.17 - 10.12.17 (KW49)
Datum Zeit Temp. I. Temp. A. Feuchte I. Feuchte A. Luftdruck Regen Wind Richtung Sonnenschein UV Solar Taupunkt Windchill Windben
04.12.2017 00:00 22,5 C -2,5 C 57 % 94 % 1025,0 hPa 0,0 l/m 5,8 km/h (2 Bft) S-SW 0,00 h 0,0 UV-I 0 W/m -3,3 C -3,0 C 9,8 km/h (2 Bft)
04.12.2017 01:00 22,4 C -2,4 C 58 % 94 % 1025,0 hPa 0,0 l/m 5,6 km/h (1 Bft) S-SW 0,00 h 0,0 UV-I 0 W/m -3,2 C -2,9 C 8,9 km/h (2 Bft)
04.12.2017 02:00 22,3 C -2,2 C 59 % 95 % 1025,2 hPa 0,0 l/m 4,3 km/h (1 Bft) S-SW 0,00 h 0,0 UV-I 0 W/m -2,9 C -2,6 C 7,0 km/h (2 Bft)
04.12.2017 03:00 22,2 C -2,0 C 59 % 95 % 1025,1 hPa 0,0 l/m 0,0 km/h (0 Bft) W-SW 0,00 h 0,0 UV-I 0 W/m -2,7 C -2,0 C 0,0 km/h (0 Bft)
04.12.2017 04:00 22,1 C -1,8 C 60 % 95 % 1025,1 hPa 0,0 l/m 7,7 km/h (2 Bft) SW 0,00 h 0,0 UV-I 0 W/m -2,5 C -3,7 C 13,0 km/h (3 Bft)
04.12.2017 05:00 22,1 C -1,7 C 60 % 95 % 1025,2 hPa 0,0 l/m 8,3 km/h (2 Bft) W-SW 0,00 h 0,0 UV-I 0 W/m -2,3 C -3,8 C 13,6 km/h (3 Bft)
04.12.2017 06:00 22,3 C -1,5 C 59 % 96 % 1025,0 hPa 0,0 l/m 6,6 km/h (2 Bft) SW 0,00 h 0,0 UV-I 0 W/m -2,1 C -2,5 C 11,9 km/h (2 Bft)
04.12.2017 07:00 22,5 C -1,2 C 59 % 96 % 1025,3 hPa 0,0 l/m 8,0 km/h (2 Bft) SW 0,00 h 0,0 UV-I 0 W/m -1,8 C -3,2 C 13,2 km/h (3 Bft)
04.12.2017 08:00 22,5 C -0,9 C 59 % 96 % 1025,8 hPa 0,0 l/m 5,5 km/h (1 Bft) SW 0,00 h 0,0 UV-I 18 W/m -1,5 C -1,5 C 10,4 km/h (2 Bft)
04.12.2017 09:00 22,6 C -0,5 C 59 % 96 % 1025,9 hPa 0,0 l/m 12,2 km/h (2 Bft) W-SW 0,00 h 0,0 UV-I 37 W/m -1,0 C -5,4 C 18,9 km/h (3 Bft)
04.12.2017 10:00 22,6 C -0,2 C 58 % 96 % 1026,0 hPa 0,2 l/m 12,0 km/h (2 Bft) W-SW 0,00 h 0,6 UV-I 50 W/m -0,7 C -5,0 C 18,1 km/h (3 Bft)
04.12.2017 11:00 22,6 C 0,3 C 58 % 96 % 1026,1 hPa 0,0 l/m 11,5 km/h (2 Bft) W-SW 0,00 h 0,5 UV-I 76 W/m -0,3 C -4,1 C 17,3 km/h (3 Bft)
04.12.2017 12:00 22,8 C 0,7 C 57 % 95 % 1025,8 hPa 0,0 l/m 11,2 km/h (2 Bft) W-SW 0,05 h 0,6 UV-I 106 W/m 0,0 C -3,4 C 17,0 km/h (3 Bft)
04.12.2017 13:00 22,8 C 0,8 C 56 % 94 % 1025,8 hPa 0,0 l/m 11,0 km/h (2 Bft) W-SW 0,00 h 0,5 UV-I 71 W/m -0,1 C -3,3 C 18,3 km/h (3 Bft)
04.12.2017 14:00 22,7 C 0,8 C 56 % 95 % 1025,8 hPa 0,0 l/m 11,7 km/h (2 Bft) W-SW 0,00 h 0,5 UV-I 50 W/m 0,1 C -3,8 C 18,0 km/h (3 Bft)
04.12.2017 15:00 22,6 C 0,8 C 57 % 95 % 1026,3 hPa 0,2 l/m 7,3 km/h (2 Bft) W 0,00 h 0,0 UV-I 7 W/m 0,1 C -0,6 C 12,3 km/h (3 Bft)
04.12.2017 16:00 22,6 C 0,9 C 57 % 96 % 1027,1 hPa 0,0 l/m 4,9 km/h (1 Bft) W 0,00 h 0,0 UV-I 0 W/m 0,3 C 0,5 C 9,0 km/h (2 Bft)
04.12.2017 17:00 22,6 C 1,1 C 57 % 95 % 1027,5 hPa 0,0 l/m 5,3 km/h (1 Bft) W-SW 0,00 h 0,0 UV-I 0 W/m 0,4 C 0,6 C 9,7 km/h (2 Bft)
04.12.2017 18:00 22,6 C 0,9 C 56 % 96 % 1028,5 hPa 0,0 l/m 5,7 km/h (1 Bft) W-SW 0,00 h 0,0 UV-I 0 W/m 0,3 C 0,5 C 10,5 km/h (2 Bft)
04.12.2017 19:00 22,8 C 0,9 C 55 % 96 % 1029,2 hPa 0,0 l/m 4,4 km/h (1 Bft) W 0,00 h 0,0 UV-I 0 W/m 0,3 C 0,8 C 8,3 km/h (2 Bft)
04.12.2017 20:00 22,8 C 0,9 C 56 % 96 % 1029,5 hPa 0,0 l/m 4,6 km/h (1 Bft) W-SW 0,00 h 0,0 UV-I 0 W/m 0,3 C 0,7 C 8,6 km/h (2 Bft)
04.12.2017 21:00 22,9 C 0,9 C 59 % 96 % 1029,9 hPa 0,0 l/m 4,7 km/h (1 Bft) W-NW 0,00 h 0,0 UV-I 0 W/m 0,4 C 0,8 C 9,3 km/h (2 Bft)
04.12.2017 22:00 23,1 C 0,8 C 59 % 96 % 1030,5 hPa 0,2 l/m 1,3 km/h (1 Bft) W 0,00 h 0,0 UV-I 0 W/m 0,2 C 0,8 C 3,4 km/h (1 Bft)
04.12.2017 23:00 23,1 C 0,7 C 59 % 96 % 1030,9 hPa 0,2 l/m 0,6 km/h (0 Bft) W-SW 0,00 h 0,0 UV-I 0 W/m 0,1 C 0,7 C 1,7 km/h (1 Bft)
05.12.2017 00:00 23,1 C 1,0 C 59 % 96 % 1031,3 hPa 0,0 l/m 3,4 km/h (1 Bft) W-SW 0,00 h 0,0 UV-I 0 W/m 0,5 C 1,0 C 7,3 km/h (2 Bft)
05.12.2017 01:00 22,9 C 1,1 C 59 % 97 % 1031,4 hPa 0,0 l/m 3,7 km/h (1 Bft) W-SW 0,00 h 0,0 UV-I 0 W/m 0,6 C 1,0 C 7,8 km/h (2 Bft)
05.12.2017 02:00 22,8 C 1,2 C 60 % 97 % 1031,8 hPa 0,0 l/m 5,9 km/h (2 Bft) W-SW 0,00 h 0,0 UV-I 0 W/m 0,8 C 0,4 C 11,2 km/h (2 Bft)
05.12.2017 03:00 22,8 C 1,2 C 61 % 97 % 1032,0 hPa 0,0 l/m 6,7 km/h (2 Bft) W-SW 0,00 h 0,0 UV-I 0 W/m 0,8 C 0,2 C 13,0 km/h (3 Bft)
05.12.2017 04:00 22,7 C 1,3 C 61 % 97 % 1032,1 hPa 0,0 l/m 6,8 km/h (2 Bft) W-SW 0,00 h 0,0 UV-I 0 W/m 0,9 C 0,2 C 12,7 km/h (3 Bft)
05.12.2017 05:00 22,6 C 1,3 C 61 % 97 % 1032,2 hPa 0,0 l/m 6,3 km/h (2 Bft) W-SW 0,00 h 0,0 UV-I 0 W/m 0,9 C 0,3 C 12,3 km/h (3 Bft)
05.12.2017 06:00 22,6 C 1,3 C 61 % 97 % 1032,3 hPa 0,0 l/m 6,2 km/h (2 Bft) SW 0,00 h 0,0 UV-I 0 W/m 0,9 C 0,6 C 11,7 km/h (2 Bft)
05.12.2017 07:00 22,7 C 1,4 C 60 % 97 % 1032,6 hPa 0,0 l/m 6,4 km/h (2 Bft) SW 0,00 h 0,0 UV-I 0 W/m 0,9 C 0,3 C 12,0 km/h (2 Bft)
05.12.2017 08:00 22,8 C 1,5 C 59 % 96 % 1033,3 hPa 0,0 l/m 5,3 km/h (1 Bft) SW 0,00 h 0,0 UV-I 0 W/m 1,0 C 0,9 C 10,4 km/h (2 Bft)
05.12.2017 09:00 22,7 C 1,7 C 56 % 96 % 1033,7 hPa 0,0 l/m 5,9 km/h (2 Bft) W-SW 0,00 h 0,0 UV-I 15 W/m 1,1 C 0,8 C 10,8 km/h (2 Bft)
05.12.2017 10:00 22,3 C 1,9 C 50 % 96 % 1033,9 hPa 0,0 l/m 9,1 km/h (2 Bft) W-SW 0,00 h 0,0 UV-I 53 W/m 1,3 C -0,6 C 15,6 km/h (3 Bft)
05.12.2017 11:00 22,3 C 2,0 C 51 % 95 % 1033,9 hPa 0,0 l/m 7,3 km/h (2 Bft) W-SW 0,00 h 0,0 UV-I 47 W/m 1,4 C 0,7 C 13,0 km/h (3 Bft)
05.12.2017 12:00 22,4 C 2,1 C 52 % 95 % 1033,9 hPa 0,0 l/m 6,7 km/h (2 Bft) W-SW 0,00 h 0,5 UV-I 59 W/m 1,4 C 0,9 C 11,9 km/h (2 Bft)
05.12.2017 13:00 22,5 C 1,8 C 52 % 95 % 1033,7 hPa 0,0 l/m 9,3 km/h (2 Bft) W-SW 0,00 h 0,0 UV-I 36 W/m 1,1 C -0,7 C 14,9 km/h (3 Bft)
05.12.2017 14:00 22,6 C 1,7 C 52 % 96 % 1033,7 hPa 0,0 l/m 7,1 km/h (2 Bft) W-SW 0,00 h 0,0 UV-I 46 W/m 1,1 C 0,3 C 12,2 km/h (3 Bft)
05.12.2017 15:00 22,6 C 1,5 C 52 % 96 % 1033,7 hPa 0,0 l/m 6,4 km/h (2 Bft) SW 0,00 h 0,0 UV-I 15 W/m 1,0 C 0,7 C 11,5 km/h (2 Bft)
05.12.2017 16:00 22,6 C 1,4 C 53 % 96 % 1033,6 hPa 0,0 l/m 6,8 km/h (2 Bft) W-SW 0,00 h 0,0 UV-I 0 W/m 0,9 C 0,5 C 11,3 km/h (2 Bft)
05.12.2017 17:00 22,6 C 1,5 C 53 % 96 % 1033,9 hPa 0,0 l/m 7,5 km/h (2 Bft) W-SW 0,00 h 0,0 UV-I 0 W/m 1,0 C 0,1 C 13,1 km/h (3 Bft)
05.12.2017 18:00 22,7 C 1,7 C 55 % 96 % 1033,9 hPa 0,0 l/m 8,1 km/h (2 Bft) SW 0,00 h 0,0 UV-I 0 W/m 1,1 C -0,1 C 14,0 km/h (3 Bft)
05.12.2017 19:00 22,9 C 1,7 C 55 % 96 % 1033,7 hPa 0,0 l/m 5,4 km/h (1 Bft) W-SW 0,00 h 0,0 UV-I 0 W/m 1,2 C 1,2 C 10,5 km/h (2 Bft)
05.12.2017 20:00 23,1 C 1,9 C 55 % 97 % 1033,6 hPa 0,0 l/m 5,8 km/h (2 Bft) W-SW 0,00 h 0,0 UV-I 0 W/m 1,5 C 1,4 C 10,6 km/h (2 Bft)
05.12.2017 21:00 23,2 C 2,0 C 54 % 97 % 1033,5 hPa 0,0 l/m 5,7 km/h (1 Bft) W-SW 0,00 h 0,0 UV-I 0 W/m 1,6 C 1,5 C 10,1 km/h (2 Bft)
05.12.2017 22:00 23,1 C 2,1 C 55 % 97 % 1033,4 hPa 0,0 l/m 5,2 km/h (1 Bft) W-SW 0,00 h 0,0 UV-I 0 W/m 1,6 C 1,8 C 9,8 km/h (2 Bft)
05.12.2017 23:00 23,1 C 2,2 C 56 % 96 % 1033,3 hPa 0,0 l/m 4,2 km/h (1 Bft) W-SW 0,00 h 0,0 UV-I 0 W/m 1,6 C 2,1 C 9,0 km/h (2 Bft)
06.12.2017 00:00 22,9 C 2,2 C 56 % 95 % 1033,2 hPa 0,0 l/m 6,2 km/h (2 Bft) W-SW 0,00 h 0,0 UV-I 0 W/m 1,4 C 1,5 C 11,2 km/h (2 Bft)
06.12.2017 01:00 22,8 C 2,2 C 57 % 94 % 1032,9 hPa 0,0 l/m 6,4 km/h (2 Bft) W-SW 0,00 h 0,0 UV-I 0 W/m 1,4 C 1,4 C 11,7 km/h (2 Bft)
06.12.2017 02:00 22,6 C 2,3 C 57 % 93 % 1032,9 hPa 0,0 l/m 8,6 km/h (2 Bft) W-SW 0,00 h 0,0 UV-I 0 W/m 1,3 C 0,2 C 15,1 km/h (3 Bft)
06.12.2017 03:00 22,6 C 2,2 C 57 % 93 % 1032,6 hPa 0,0 l/m 9,5 km/h (2 Bft) W-SW 0,00 h 0,0 UV-I 0 W/m 1,2 C -0,5 C 15,7 km/h (3 Bft)
06.12.2017 04:00 22,5 C 2,2 C 58 % 92 % 1032,2 hPa 0,0 l/m 10,8 km/h (2 Bft) W 0,00 h 0,0 UV-I 0 W/m 1,1 C -1,5 C 17,0 km/h (3 Bft)
06.12.2017 05:00 22,4 C 2,1 C 58 % 91 % 1032,1 hPa 0,0 l/m 10,5 km/h (2 Bft) W 0,00 h 0,0 UV-I 0 W/m 0,8 C -1,4 C 17,2 km/h (3 Bft)
06.12.2017 06:00 22,5 C 2,0 C 58 % 91 % 1032,2 hPa 0,0 l/m 11,0 km/h (2 Bft) W-SW 0,00 h 0,0 UV-I 0 W/m 0,6 C -1,8 C 17,3 km/h (3 Bft)
06.12.2017 07:00 22,7 C 1,9 C 58 % 90 % 1032,1 hPa 0,0 l/m 8,5 km/h (2 Bft) W-SW 0,00 h 0,0 UV-I 0 W/m 0,4 C -0,2 C 14,3 km/h (3 Bft)
06.12.2017 08:00 22,8 C 1,9 C 57 % 90 % 1032,1 hPa 0,0 l/m 4,5 km/h (1 Bft) SW 0,00 h 0,0 UV-I 6 W/m 0,5 C 1,4 C 9,1 km/h (2 Bft)
06.12.2017 09:00 22,7 C 2,0 C 56 % 91 % 1032,0 hPa 0,0 l/m 4,4 km/h (1 Bft) S-SW 0,00 h 0,0 UV-I 16 W/m 0,6 C 1,4 C 9,0 km/h (2 Bft)
06.12.2017 10:00 22,6 C 2,2 C 55 % 90 % 1032,2 hPa 0,0 l/m 7,0 km/h (2 Bft) W-SW 0,00 h 0,0 UV-I 23 W/m 0,8 C 0,9 C 12,6 km/h (3 Bft)
06.12.2017 11:00 22,6 C 2,3 C 55 % 90 % 1032,0 hPa 0,0 l/m 8,0 km/h (2 Bft) SW 0,00 h 0,0 UV-I 33 W/m 0,9 C 0,6 C 14,1 km/h (3 Bft)
06.12.2017 12:00 22,6 C 2,4 C 54 % 89 % 1031,6 hPa 0,0 l/m 10,6 km/h (2 Bft) W-SW 0,00 h 0,0 UV-I 38 W/m 0,9 C -1,1 C 17,4 km/h (3 Bft)
06.12.2017 13:00 22,6 C 2,5 C 54 % 89 % 1031,3 hPa 0,0 l/m 7,6 km/h (2 Bft) SW 0,00 h 0,0 UV-I 30 W/m 0,9 C 0,8 C 13,8 km/h (3 Bft)
06.12.2017 14:00 22,7 C 2,5 C 55 % 89 % 1031,0 hPa 0,0 l/m 8,4 km/h (2 Bft) W-SW 0,00 h 0,0 UV-I 22 W/m 0,9 C 0,5 C 14,1 km/h (3 Bft)
06.12.2017 15:00 22,7 C 2,5 C 55 % 89 % 1031,1 hPa 0,0 l/m 8,5 km/h (2 Bft) W-SW 0,00 h 0,0 UV-I 8 W/m 0,9 C 0,4 C 13,8 km/h (3 Bft)
06.12.2017 16:00 22,7 C 2,5 C 55 % 89 % 1031,1 hPa 0,0 l/m 5,8 km/h (2 Bft) SW 0,00 h 0,0 UV-I 0 W/m 0,9 C 1,9 C 11,1 km/h (2 Bft)
06.12.2017 17:00 22,8 C 2,4 C 55 % 90 % 1030,8 hPa 0,0 l/m 4,2 km/h (1 Bft) SW 0,00 h 0,0 UV-I 0 W/m 0,9 C 2,3 C 8,4 km/h (2 Bft)
06.12.2017 18:00 22,7 C 2,3 C 55 % 90 % 1030,8 hPa 0,0 l/m 4,5 km/h (1 Bft) SW 0,00 h 0,0 UV-I 0 W/m 0,9 C 2,2 C 9,1 km/h (2 Bft)
06.12.2017 19:00 22,6 C 2,3 C 53 % 91 % 1030,6 hPa 0,0 l/m 3,0 km/h (1 Bft) SW 0,00 h 0,0 UV-I 0 W/m 1,0 C 2,3 C 7,1 km/h (2 Bft)
06.12.2017 20:00 22,5 C 2,4 C 54 % 91 % 1030,3 hPa 0,0 l/m 3,5 km/h (1 Bft) SW 0,00 h 0,0 UV-I 0 W/m 1,0 C 2,1 C 7,4 km/h (2 Bft)
06.12.2017 21:00 22,7 C 2,3 C 56 % 91 % 1030,1 hPa 0,0 l/m 2,6 km/h (1 Bft) SW 0,00 h 0,0 UV-I 0 W/m 1,0 C 2,3 C 6,1 km/h (2 Bft)
06.12.2017 22:00 22,9 C 2,3 C 58 % 91 % 1029,7 hPa 0,0 l/m 3,2 km/h (1 Bft) SW 0,00 h 0,0 UV-I 0 W/m 1,0 C 2,3 C 7,5 km/h (2 Bft)
06.12.2017 23:00 23,0 C 2,4 C 58 % 91 % 1029,3 hPa 0,0 l/m 3,1 km/h (1 Bft) S-SW 0,00 h 0,0 UV-I 0 W/m 1,0 C 2,4 C 7,0 km/h (2 Bft)
07.12.2017 00:00 22,9 C 2,2 C 58 % 91 % 1028,6 hPa 0,0 l/m 3,7 km/h (1 Bft) S-SW 0,00 h 0,0 UV-I 0 W/m 0,9 C 2,2 C 7,9 km/h (2 Bft)
07.12.2017 01:00 22,7 C 2,1 C 58 % 91 % 1028,1 hPa 0,0 l/m 4,3 km/h (1 Bft) S 0,00 h 0,0 UV-I 0 W/m 0,8 C 2,0 C 8,6 km/h (2 Bft)
07.12.2017 02:00 22,6 C 2,0 C 59 % 90 % 1027,7 hPa 0,0 l/m 6,0 km/h (2 Bft) S 0,00 h 0,0 UV-I 0 W/m 0,5 C 1,5 C 10,8 km/h (2 Bft)
07.12.2017 03:00 22,5 C 1,8 C 60 % 89 % 1027,0 hPa 0,0 l/m 4,7 km/h (1 Bft) S 0,00 h 0,0 UV-I 0 W/m 0,2 C 1,5 C 9,2 km/h (2 Bft)
07.12.2017 04:00 22,4 C 1,4 C 60 % 89 % 1026,1 hPa 0,0 l/m 6,5 km/h (2 Bft) S-SW 0,00 h 0,0 UV-I 0 W/m -0,1 C 0,4 C 11,8 km/h (2 Bft)
07.12.2017 05:00 22,3 C 1,2 C 60 % 89 % 1025,7 hPa 0,0 l/m 7,8 km/h (2 Bft) S-SW 0,00 h 0,0 UV-I 0 W/m -0,4 C -0,6 C 13,7 km/h (3 Bft)
07.12.2017 06:00 21,9 C 0,6 C 61 % 89 % 1025,2 hPa 0,0 l/m 8,2 km/h (2 Bft) S-SW 0,00 h 0,0 UV-I 0 W/m -0,9 C -1,4 C 13,6 km/h (3 Bft)
07.12.2017 07:00 22,2 C 0,1 C 60 % 91 % 1024,8 hPa 0,0 l/m 9,4 km/h (2 Bft) S 0,00 h 0,0 UV-I 0 W/m -1,2 C -2,8 C 15,8 km/h (3 Bft)
07.12.2017 08:00 22,4 C -0,2 C 58 % 92 % 1024,9 hPa 0,0 l/m 9,1 km/h (2 Bft) S-SW 0,00 h 0,0 UV-I 17 W/m -1,3 C -2,9 C 15,1 km/h (3 Bft)
07.12.2017 09:00 22,3 C -0,3 C 56 % 93 % 1024,8 hPa 0,0 l/m 10,0 km/h (2 Bft) S 0,00 h 0,0 UV-I 38 W/m -1,3 C -3,6 C 16,2 km/h (3 Bft)
07.12.2017 10:00 22,3 C -0,2 C 55 % 93 % 1024,5 hPa 0,0 l/m 8,4 km/h (2 Bft) S 0,00 h 0,5 UV-I 59 W/m -1,2 C -2,4 C 13,7 km/h (3 Bft)
07.12.2017 11:00 22,4 C 0,2 C 55 % 92 % 1023,6 hPa 0,0 l/m 8,8 km/h (2 Bft) S 0,47 h 0,7 UV-I 153 W/m -0,9 C -2,2 C 14,5 km/h (3 Bft)
07.12.2017 12:00 23,1 C 2,1 C 53 % 87 % 1022,5 hPa 0,0 l/m 7,7 km/h (2 Bft) S 1,02 h 0,9 UV-I 283 W/m 0,1 C 0,3 C 13,1 km/h (3 Bft)
07.12.2017 13:00 23,5 C 2,7 C 53 % 84 % 1021,5 hPa 0,0 l/m 7,7 km/h (2 Bft) S 1,00 h 0,7 UV-I 223 W/m 0,3 C 0,9 C 12,9 km/h (3 Bft)
07.12.2017 14:00 23,6 C 2,9 C 54 % 83 % 1020,5 hPa 0,0 l/m 9,2 km/h (2 Bft) S 0,28 h 0,5 UV-I 129 W/m 0,4 C 0,5 C 14,3 km/h (3 Bft)
07.12.2017 15:00 23,4 C 2,3 C 54 % 84 % 1019,7 hPa 0,0 l/m 7,4 km/h (2 Bft) S-SO 0,00 h 0,0 UV-I 38 W/m -0,1 C 0,8 C 11,4 km/h (2 Bft)
07.12.2017 16:00 23,1 C 1,4 C 55 % 87 % 1019,0 hPa 0,0 l/m 5,1 km/h (1 Bft) S-SO 0,00 h 0,0 UV-I 6 W/m -0,5 C 1,2 C 8,8 km/h (2 Bft)
07.12.2017 17:00 22,8 C 1,0 C 56 % 89 % 1018,2 hPa 0,0 l/m 4,9 km/h (1 Bft) S 0,00 h 0,0 UV-I 0 W/m -0,6 C 0,6 C 8,2 km/h (2 Bft)
07.12.2017 18:00 22,6 C 1,1 C 56 % 89 % 1017,4 hPa 0,0 l/m 2,6 km/h (1 Bft) S 0,00 h 0,0 UV-I 0 W/m -0,5 C 0,9 C 5,2 km/h (1 Bft)
07.12.2017 19:00 22,7 C 0,9 C 57 % 89 % 1016,8 hPa 0,0 l/m 2,2 km/h (1 Bft) SW 0,00 h 0,0 UV-I 0 W/m -0,7 C 0,9 C 4,7 km/h (1 Bft)
07.12.2017 20:00 22,7 C 1,1 C 56 % 88 % 1015,8 hPa 0,0 l/m 8,0 km/h (2 Bft) S 0,00 h 0,0 UV-I 0 W/m -0,7 C -0,9 C 13,4 km/h (3 Bft)
07.12.2017 21:00 22,7 C 1,5 C 57 % 85 % 1014,6 hPa 0,0 l/m 8,3 km/h (2 Bft) S 0,00 h 0,0 UV-I 0 W/m -0,7 C -0,6 C 14,4 km/h (3 Bft)
07.12.2017 22:00 22,7 C 1,9 C 58 % 83 % 1013,5 hPa 0,0 l/m 6,1 km/h (2 Bft) S 0,00 h 0,0 UV-I 0 W/m -0,7 C 0,9 C 11,8 km/h (2 Bft)
07.12.2017 23:00 22,8 C 2,4 C 58 % 83 % 1012,4 hPa 0,0 l/m 7,8 km/h (2 Bft) S 0,00 h 0,0 UV-I 0 W/m -0,3 C 0,7 C 12,8 km/h (3 Bft)
08.12.2017 00:00 22,8 C 2,4 C 58 % 84 % 1011,5 hPa 0,0 l/m 4,9 km/h (1 Bft) S 0,00 h 0,0 UV-I 0 W/m -0,0 C 1,7 C 9,0 km/h (2 Bft)
08.12.2017 01:00 22,7 C 1,9 C 58 % 88 % 1011,0 hPa 0,8 l/m 5,1 km/h (1 Bft) S 0,00 h 0,0 UV-I 0 W/m 0,0 C 1,3 C 9,5 km/h (2 Bft)
08.12.2017 02:00 22,6 C 1,1 C 59 % 93 % 1010,4 hPa 1,6 l/m 4,2 km/h (1 Bft) S 0,00 h 0,0 UV-I 0 W/m 0,1 C 0,9 C 7,5 km/h (2 Bft)
08.12.2017 03:00 22,5 C 1,3 C 59 % 95 % 1009,5 hPa 0,4 l/m 4,5 km/h (1 Bft) S 0,00 h 0,0 UV-I 0 W/m 0,6 C 1,2 C 8,4 km/h (2 Bft)
08.12.2017 04:00 22,5 C 1,9 C 59 % 95 % 1008,9 hPa 0,4 l/m 5,4 km/h (1 Bft) S 0,00 h 0,0 UV-I 0 W/m 1,3 C 1,5 C 9,5 km/h (2 Bft)
08.12.2017 05:00 22,4 C 2,2 C 60 % 96 % 1008,8 hPa 0,2 l/m 1,9 km/h (1 Bft) S-SW 0,00 h 0,0 UV-I 0 W/m 1,6 C 2,2 C 4,6 km/h (1 Bft)
08.12.2017 06:00 22,7 C 2,5 C 59 % 96 % 1008,6 hPa 0,6 l/m 5,8 km/h (2 Bft) S 0,00 h 0,0 UV-I 0 W/m 2,0 C 1,9 C 11,1 km/h (2 Bft)
08.12.2017 07:00 22,8 C 3,1 C 59 % 97 % 1008,3 hPa 0,6 l/m 3,8 km/h (1 Bft) S-SW 0,00 h 0,0 UV-I 0 W/m 2,6 C 2,7 C 7,5 km/h (2 Bft)
08.12.2017 08:00 22,9 C 3,2 C 58 % 97 % 1008,6 hPa 0,2 l/m 6,6 km/h (2 Bft) W-SW 0,00 h 0,0 UV-I 13 W/m 2,7 C 1,9 C 12,0 km/h (2 Bft)
08.12.2017 09:00 22,9 C 3,0 C 57 % 95 % 1009,2 hPa 0,0 l/m 7,3 km/h (2 Bft) W-SW 0,00 h 0,0 UV-I 49 W/m 2,3 C 1,7 C 12,5 km/h (3 Bft)
08.12.2017 10:00 23,1 C 3,1 C 57 % 94 % 1009,8 hPa 0,0 l/m 8,8 km/h (2 Bft) W-SW 0,15 h 0,6 UV-I 106 W/m 2,1 C 0,6 C 15,1 km/h (3 Bft)
08.12.2017 11:00 23,3 C 2,5 C 56 % 92 % 1009,5 hPa 0,2 l/m 8,5 km/h (2 Bft) W-SW 0,15 h 0,6 UV-I 80 W/m 1,3 C 0,4 C 14,4 km/h (3 Bft)
08.12.2017 12:00 23,3 C 2,4 C 56 % 91 % 1009,1 hPa 0,0 l/m 6,2 km/h (2 Bft) W-SW 0,17 h 0,6 UV-I 97 W/m 1,1 C 1,4 C 11,5 km/h (2 Bft)
08.12.2017 13:00 23,7 C 3,5 C 54 % 83 % 1008,7 hPa 0,0 l/m 9,1 km/h (2 Bft) W-SW 0,83 h 0,6 UV-I 214 W/m 0,9 C 1,0 C 15,5 km/h (3 Bft)
08.12.2017 14:00 23,9 C 3,6 C 54 % 79 % 1008,7 hPa 0,0 l/m 8,6 km/h (2 Bft) W-SW 0,33 h 0,5 UV-I 130 W/m 0,4 C 1,5 C 14,3 km/h (3 Bft)
08.12.2017 15:00 23,7 C 2,4 C 53 % 82 % 1008,9 hPa 0,0 l/m 4,3 km/h (1 Bft) SW 0,00 h 0,0 UV-I 20 W/m -0,4 C 2,0 C 8,4 km/h (2 Bft)
08.12.2017 16:00 23,3 C 0,9 C 56 % 88 % 1009,5 hPa 0,0 l/m 10,8 km/h (2 Bft) S 0,00 h 0,0 UV-I 0 W/m -0,8 C -2,9 C 17,7 km/h (3 Bft)
08.12.2017 17:00 23,0 C 0,2 C 59 % 93 % 1009,4 hPa 0,0 l/m 8,4 km/h (2 Bft) S-SW 0,00 h 0,0 UV-I 0 W/m -0,8 C -2,0 C 14,1 km/h (3 Bft)
08.12.2017 18:00 22,8 C 0,0 C 57 % 92 % 1009,7 hPa 0,0 l/m 10,2 km/h (2 Bft) W-SW 0,00 h 0,0 UV-I 0 W/m -1,1 C -3,4 C 16,1 km/h (3 Bft)
08.12.2017 19:00 22,7 C -0,1 C 55 % 90 % 1010,1 hPa 0,0 l/m 10,7 km/h (2 Bft) W-SW 0,00 h 0,0 UV-I 0 W/m -1,6 C -4,0 C 17,0 km/h (3 Bft)
08.12.2017 20:00 22,8 C -0,4 C 56 % 90 % 1010,4 hPa 0,0 l/m 7,6 km/h (2 Bft) W-SW 0,00 h 0,0 UV-I 0 W/m -1,8 C -2,1 C 11,9 km/h (2 Bft)
08.12.2017 21:00 22,8 C -0,4 C 56 % 91 % 1010,5 hPa 0,0 l/m 9,1 km/h (2 Bft) SW 0,00 h 0,0 UV-I 0 W/m -1,7 C -3,1 C 14,5 km/h (3 Bft)
08.12.2017 22:00 22,9 C -0,2 C 57 % 90 % 1010,8 hPa 0,0 l/m 6,4 km/h (2 Bft) W-SW 0,00 h 0,0 UV-I 0 W/m -1,6 C -1,3 C 10,9 km/h (2 Bft)
08.12.2017 23:00 22,9 C -0,2 C 58 % 89 % 1010,8 hPa 0,0 l/m 6,1 km/h (2 Bft) S-SW 0,00 h 0,0 UV-I 0 W/m -1,8 C -1,0 C 10,0 km/h (2 Bft)
09.12.2017 00:00 22,9 C -0,4 C 58 % 87 % 1010,7 hPa 0,0 l/m 5,7 km/h (1 Bft) SW 0,00 h 0,0 UV-I 0 W/m -2,3 C -1,2 C 9,1 km/h (2 Bft)
09.12.2017 01:00 22,7 C -0,6 C 58 % 88 % 1010,1 hPa 0,0 l/m 9,1 km/h (2 Bft) W-SW 0,00 h 0,0 UV-I 0 W/m -2,4 C -3,4 C 14,8 km/h (3 Bft)
09.12.2017 02:00 22,6 C -0,7 C 60 % 86 % 1010,4 hPa 0,0 l/m 8,5 km/h (2 Bft) W-SW 0,00 h 0,0 UV-I 0 W/m -2,7 C -2,8 C 13,8 km/h (3 Bft)
09.12.2017 03:00 22,5 C -1,2 C 60 % 84 % 1010,8 hPa 0,0 l/m 7,3 km/h (2 Bft) SW 0,00 h 0,0 UV-I 0 W/m -3,5 C -2,6 C 11,6 km/h (2 Bft)
09.12.2017 04:00 22,4 C -1,5 C 61 % 84 % 1010,7 hPa 0,0 l/m 7,1 km/h (2 Bft) SW 0,00 h 0,0 UV-I 0 W/m -3,8 C -2,7 C 10,9 km/h (2 Bft)
09.12.2017 05:00 22,4 C -1,6 C 60 % 89 % 1010,3 hPa 0,0 l/m 7,8 km/h (2 Bft) S-SW 0,00 h 0,0 UV-I 0 W/m -3,3 C -3,2 C 12,0 km/h (2 Bft)
09.12.2017 06:00 22,4 C -1,9 C 61 % 93 % 1010,6 hPa 0,0 l/m 7,7 km/h (2 Bft) SW 0,00 h 0,0 UV-I 0 W/m -2,9 C -3,5 C 12,4 km/h (3 Bft)
09.12.2017 07:00 22,6 C -1,7 C 60 % 93 % 1010,9 hPa 0,0 l/m 8,3 km/h (2 Bft) W-SW 0,00 h 0,0 UV-I 0 W/m -2,7 C -3,7 C 12,5 km/h (3 Bft)
09.12.2017 08:00 22,7 C -1,4 C 60 % 91 % 1011,6 hPa 0,0 l/m 7,6 km/h (2 Bft) SW 0,00 h 0,0 UV-I 8 W/m -2,6 C -3,1 C 12,1 km/h (2 Bft)
09.12.2017 09:00 22,8 C -1,3 C 60 % 89 % 1012,4 hPa 0,0 l/m 8,1 km/h (2 Bft) W-SW 0,00 h 0,0 UV-I 9 W/m -2,9 C -3,3 C 13,0 km/h (3 Bft)
09.12.2017 10:00 22,8 C -1,3 C 62 % 88 % 1012,9 hPa 0,0 l/m 9,8 km/h (2 Bft) SW 0,00 h 0,0 UV-I 36 W/m -3,1 C -4,6 C 15,6 km/h (3 Bft)
09.12.2017 11:00 22,7 C -1,4 C 59 % 82 % 1012,6 hPa 0,0 l/m 12,6 km/h (3 Bft) SW 0,00 h 0,5 UV-I 57 W/m -4,1 C -6,7 C 19,7 km/h (3 Bft)
09.12.2017 12:00 22,7 C -1,3 C 58 % 79 % 1012,8 hPa 0,0 l/m 13,6 km/h (3 Bft) W-SW 0,08 h 0,5 UV-I 84 W/m -4,5 C -7,4 C 21,1 km/h (4 Bft)
09.12.2017 13:00 22,6 C -1,5 C 57 % 79 % 1012,8 hPa 0,0 l/m 14,2 km/h (3 Bft) W-SW 0,00 h 0,0 UV-I 52 W/m -4,8 C -8,1 C 22,1 km/h (4 Bft)
09.12.2017 14:00 22,6 C -1,7 C 57 % 81 % 1012,5 hPa 0,0 l/m 15,5 km/h (3 Bft) W-SW 0,00 h 0,0 UV-I 61 W/m -4,6 C -9,2 C 24,2 km/h (4 Bft)
09.12.2017 15:00 22,6 C -2,1 C 57 % 86 % 1012,9 hPa 0,0 l/m 13,2 km/h (3 Bft) W-SW 0,00 h 0,0 UV-I 26 W/m -4,2 C -8,1 C 21,0 km/h (4 Bft)
09.12.2017 16:00 22,6 C -2,4 C 58 % 89 % 1013,5 hPa 0,0 l/m 10,3 km/h (2 Bft) SW 0,00 h 0,0 UV-I 5 W/m -4,0 C -6,2 C 16,0 km/h (3 Bft)
09.12.2017 17:00 22,7 C -2,6 C 59 % 91 % 1013,8 hPa 0,0 l/m 12,2 km/h (2 Bft) W-SW 0,00 h 0,0 UV-I 0 W/m -3,9 C -8,0 C 19,0 km/h (3 Bft)
09.12.2017 18:00 22,7 C -2,6 C 60 % 90 % 1013,7 hPa 0,0 l/m 9,3 km/h (2 Bft) SW 0,00 h 0,0 UV-I 0 W/m -4,0 C -5,6 C 15,1 km/h (3 Bft)
09.12.2017 19:00 22,7 C -2,3 C 63 % 88 % 1013,8 hPa 0,0 l/m 10,7 km/h (2 Bft) W-SW 0,00 h 0,0 UV-I 0 W/m -4,0 C -6,4 C 16,5 km/h (3 Bft)
09.12.2017 20:00 22,7 C -2,2 C 61 % 88 % 1013,8 hPa 0,0 l/m 9,1 km/h (2 Bft) SW 0,00 h 0,0 UV-I 0 W/m -3,9 C -5,1 C 13,3 km/h (3 Bft)
09.12.2017 21:00 22,7 C -2,2 C 61 % 89 % 1013,7 hPa 0,0 l/m 7,8 km/h (2 Bft) SW 0,00 h 0,0 UV-I 0 W/m -3,7 C -3,9 C 12,4 km/h (3 Bft)
09.12.2017 22:00 22,7 C -2,1 C 61 % 89 % 1013,6 hPa 0,0 l/m 8,3 km/h (2 Bft) SW 0,00 h 0,0 UV-I 0 W/m -3,7 C -4,3 C 12,8 km/h (3 Bft)
09.12.2017 23:00 22,8 C -2,0 C 62 % 87 % 1013,3 hPa 0,0 l/m 10,4 km/h (2 Bft) SW 0,00 h 0,0 UV-I 0 W/m -3,8 C -5,8 C 16,5 km/h (3 Bft)
10.12.2017 00:00 22,8 C -1,9 C 62 % 85 % 1012,7 hPa 0,0 l/m 9,7 km/h (2 Bft) SW 0,00 h 0,0 UV-I 0 W/m -4,2 C -5,2 C 14,9 km/h (3 Bft)
10.12.2017 01:00 22,6 C -2,0 C 62 % 85 % 1012,1 hPa 0,0 l/m 7,9 km/h (2 Bft) S-SW 0,00 h 0,0 UV-I 0 W/m -4,3 C -3,9 C 12,6 km/h (3 Bft)
10.12.2017 02:00 22,4 C -2,2 C 62 % 85 % 1011,5 hPa 0,0 l/m 8,5 km/h (2 Bft) S 0,00 h 0,0 UV-I 0 W/m -4,4 C -4,5 C 13,1 km/h (3 Bft)
10.12.2017 03:00 22,4 C -2,4 C 61 % 84 % 1010,6 hPa 0,0 l/m 10,0 km/h (2 Bft) S 0,00 h 0,0 UV-I 0 W/m -4,7 C -6,0 C 15,1 km/h (3 Bft)
10.12.2017 04:00 22,3 C -2,9 C 62 % 84 % 1009,6 hPa 0,0 l/m 7,7 km/h (2 Bft) S 0,00 h 0,0 UV-I 0 W/m -5,3 C -4,5 C 11,6 km/h (2 Bft)
10.12.2017 05:00 22,2 C -3,3 C 62 % 85 % 1008,9 hPa 0,0 l/m 8,3 km/h (2 Bft) S 0,00 h 0,0 UV-I 0 W/m -5,5 C -5,3 C 12,3 km/h (3 Bft)
10.12.2017 06:00 22,3 C -3,5 C 61 % 85 % 1008,0 hPa 0,0 l/m 9,3 km/h (2 Bft) S-SO 0,00 h 0,0 UV-I 0 W/m -5,7 C -6,6 C 13,2 km/h (3 Bft)
10.12.2017 07:00 22,3 C -4,2 C 60 % 87 % 1006,9 hPa 0,0 l/m 9,7 km/h (2 Bft) S-SO 0,00 h 0,0 UV-I 0 W/m -6,1 C -8,3 C 13,2 km/h (3 Bft)
10.12.2017 08:00 22,3 C -4,7 C 60 % 89 % 1005,4 hPa 0,0 l/m 9,6 km/h (2 Bft) S-SO 0,00 h 0,0 UV-I 34 W/m -6,3 C -8,1 C 13,2 km/h (3 Bft)
10.12.2017 09:00 22,4 C -3,7 C 59 % 86 % 1003,8 hPa 0,0 l/m 7,0 km/h (2 Bft) SO 0,27 h 0,5 UV-I 117 W/m -5,7 C -5,0 C 10,6 km/h (2 Bft)
10.12.2017 10:00 22,8 C -3,0 C 58 % 83 % 1001,9 hPa 0,0 l/m 9,3 km/h (2 Bft) SO 0,53 h 0,6 UV-I 157 W/m -5,4 C -6,2 C 14,3 km/h (3 Bft)
10.12.2017 11:00 23,2 C -2,6 C 56 % 81 % 999,1 hPa 0,0 l/m 12,6 km/h (3 Bft) SO 0,53 h 0,7 UV-I 149 W/m -5,4 C -8,2 C 18,6 km/h (3 Bft)
10.12.2017 12:00 22,9 C -2,2 C 57 % 74 % 996,2 hPa 0,0 l/m 12,5 km/h (3 Bft) SO 0,00 h 0,5 UV-I 91 W/m -6,1 C -7,7 C 17,5 km/h (3 Bft)
10.12.2017 13:00 22,5 C -2,1 C 57 % 69 % 993,7 hPa 0,0 l/m 14,2 km/h (3 Bft) SO 0,00 h 0,0 UV-I 34 W/m -6,9 C -8,8 C 20,8 km/h (4 Bft)
10.12.2017 14:00 22,3 C -3,1 C 58 % 85 % 991,7 hPa 0,0 l/m 13,7 km/h (3 Bft) SO 0,00 h 0,0 UV-I 17 W/m -5,2 C -9,6 C 19,5 km/h (3 Bft)
10.12.2017 15:00 22,4 C -3,3 C 61 % 92 % 990,3 hPa 0,4 l/m 10,4 km/h (2 Bft) SO 0,00 h 0,0 UV-I 9 W/m -4,5 C -7,4 C 15,7 km/h (3 Bft)
10.12.2017 16:00 22,5 C -3,4 C 63 % 93 % 989,5 hPa 0,6 l/m 4,2 km/h (1 Bft) SO 0,00 h 0,0 UV-I 0 W/m -4,3 C -4,3 C 5,7 km/h (1 Bft)
10.12.2017 17:00 22,6 C -2,6 C 62 % 94 % 989,1 hPa 0,0 l/m 5,8 km/h (2 Bft) S 0,00 h 0,0 UV-I 0 W/m -3,4 C -4,9 C 9,0 km/h (2 Bft)
10.12.2017 18:00 22,6 C -1,7 C 62 % 94 % 989,0 hPa 0,2 l/m 15,1 km/h (3 Bft) S 0,00 h 0,0 UV-I 0 W/m -2,6 C -9,0 C 23,1 km/h (4 Bft)
10.12.2017 19:00 22,6 C -0,8 C 61 % 95 % 988,9 hPa 0,0 l/m 18,4 km/h (3 Bft) S 0,00 h 0,0 UV-I 0 W/m -1,5 C -9,7 C 28,6 km/h (4 Bft)
10.12.2017 20:00 22,5 C 0,2 C 61 % 95 % 989,4 hPa 0,2 l/m 16,9 km/h (3 Bft) S 0,00 h 0,0 UV-I 0 W/m -0,5 C -7,6 C 25,3 km/h (4 Bft)
10.12.2017 21:00 22,6 C 1,0 C 61 % 95 % 989,4 hPa 0,0 l/m 14,5 km/h (3 Bft) S 0,00 h 0,0 UV-I 0 W/m 0,3 C -5,4 C 21,4 km/h (4 Bft)
10.12.2017 22:00 22,6 C 1,8 C 61 % 95 % 988,9 hPa 0,0 l/m 15,1 km/h (3 Bft) S-SO 0,00 h 0,0 UV-I 0 W/m 1,0 C -4,8 C 22,4 km/h (4 Bft)
10.12.2017 23:00 22,6 C 2,1 C 61 % 93 % 988,8 hPa 0,0 l/m 16,1 km/h (3 Bft) S-SO 0,00 h 0,0 UV-I 0 W/m 1,1 C -4,9 C 24,6 km/h (4 Bft)
Min-Datum _ 07.12.17 10.12.17 05.12.17 10.12.17 10.12.17 - 04.12.17 - - - - 10.12.17 10.12.17 04.12.17
_ Min-Zeit 06:32 08:14 10:34 13:21 23:12 - 02:43 - - - - 13:24 19:15 02:44
Minimum _ 21,7 C -4,9 C 47 % 68 % 988,4 hPa - 0,0 km/h (0 Bft) - - - - -7,3 C -14,4 C 0,0 km/h (0 Bft)
Max-Datum _ 08.12.17 08.12.17 09.12.17 04.12.17 05.12.17 08.12.17 10.12.17 - 07.12.17 07.12.17 08.12.17 08.12.17 08.12.17 10.12.17
_ Max-Zeit 14:10 14:12 10:43 10:48 11:56 02:05 19:15 - 12:00 11:39 12:59 08:03 14:10 19:38
Maximum _ 23,9 C 3,9 C 64 % 97 % 1034,1 hPa 1,6 l/m 29,0 km/h
S (5 Bft)
- 0,03 h 0,9 UV-I 376 W/m 2,9 C 3,8 C 40,2 km/h
S (6 Bft)
Durchschnitt _ 22,7 C 0,4 C 58 % 91 % 1019,1 hPa #7,2 l/m 7,7 km/h (2 Bft) W-SW #5:52 h 0,6 UV-I 61 W/m -0,9 C -1,7 C 12,9 km/h (3 Bft)